Location: Helsinki
(60.1699°N, 24.9384°E)
Time: 01:42:12
(UTC+02:00)

ISS - Pass Details

Date: 01 December 2021
Orbit: 413 x 422 km, 51.6° (Epoch: 22 January)

Event Time Altitude Azimuth Distance (km) Brightness Sun altitude
Rises 18:01:13 0° 255° (WSW) 2,386 1.8 -17.9°
Reaches altitude 10° 18:03:45 10° 236° (SW) 1,517 0.1 -18.2°
Maximum altitude 18:06:10 18° 191° (S) 1,111 -1.4 -18.5°
Enters shadow 18:07:41 14° 158° (SSE) 1,283 -1.4 -18.7°
